{"data":{"norad_id":52939,"epoch":"2026-05-24T20:27:53.021664Z","epoch_age_seconds":84906,"freshness":"FRESH","line1":"1 52939U 22072E   26144.85269701  .00007009  00000+0  24188-3 0  9997","line2":"2 52939   9.9517 248.0614 0024039 212.7860 147.0862 15.23765423215947","mean_motion":15.23765423,"eccentricity":0.0024039,"inclination_deg":9.9517,"raan_deg":248.0614,"arg_perigee_deg":212.786,"mean_anomaly_deg":147.0862,"bstar":0.00024188,"rev_number":21594,"period_min":94.50273501842,"perigee_km":477.97401339313,"apogee_km":511.01625416592,"semimajor_km":6872.6321337795,"source":"CELESTRAK","updated_at":"2026-05-25T13:37:57.957729Z"}}